Regional Weather Roundup
Issued by NWS

Home | Current Version | Previous Version | Graphics & Text | Print | Product List | Glossary On
Versions: 1 2 3 4 5 6 7 8 9 10 11 12 13 14 15 16 17 18 19 20 21 22 23 24 25 26 27 28 29 30 31 32 33 34 35 36 37 38 39 40 41 42 43 44 45 46 47 48 49 50
000
ASUS43 KIND 011359
RWRIN

WEATHER ROUNDUP FOR INDIANA
NATIONAL WEATHER SERVICE INDIANAPOLIS IN
1000 AM EDT WED APR 01 2015

NOTE: "FAIR" INDICATES FEW OR NO CLOUDS BELOW 12,000 FEET WITH NO
SIGNIFICANT WEATHER AND/OR OBSTRUCTIONS TO VISIBILITY.

* - STATION DOES NOT REPORT WEATHER SUCH AS PRECIPITATION OR FOG.

+ - STATION NOT QUALITY CONTROLLED BY THE NATIONAL WEATHER SERVICE.
    USE DATA WITH CAUTION...ESPECIALLY DEWPOINT AND RELATIVE
    HUMIDITY OBSERVATIONS.

INZ001>003-010>013-019-020-011500-
NORTHWEST INDIANA

CITY           SKY/WX    TMP DP  RH WIND       PRES   REMARKS
GARY /AIRPORT/ SUNNY     52  32  46 CALM      30.08R

$$

LMZ046-743>745-011500-
SOUTHERN LAKE MICHIGAN

STATION/POSITION TIME  TEMP WIND        PRES
                       AIR  DIR/SP/G
                 (UTC) (F)  (DEG/KT/KT) (MB)
BURNS HARBOR     1300   46  190/  4/  6 1019.0R
MICHIGAN CITY    1300   42   80/  1/  2   N/A

$$

INZ004-005-014>016-021>024-011500-
NORTH CENTRAL INDIANA

CITY           SKY/WX    TMP DP  RH WIND       PRES   REMARKS
ELKHART        SUNNY     45  32  61 W5        30.10R
GOSHEN         SUNNY     45  36  70 W8        30.10R
SOUTH BEND     SUNNY     47  34  60 SW7       30.10R

$$

INZ006>009-017-018-025>027-011500-
NORTHEAST INDIANA

CITY           SKY/WX    TMP DP  RH WIND       PRES   REMARKS
ANGOLA *+      SUNNY     46  36  66 W6        30.08R
FORT WAYNE     SUNNY     44  37  76 SW10      30.12R

$$

INZ028-029-035-036-043>045-051>053-011500-
WEST CENTRAL INDIANA

CITY           SKY/WX    TMP DP  RH WIND       PRES   REMARKS
CRAWFORDSVL +  SUNNY     50  32  49 S7        30.10S
GREENCASTLE +  SUNNY     50  32  50 S9        30.11S
LAFAYETTE      SUNNY     50  37  61 SW8       30.10R
TERRE HAUTE    SUNNY     51  38  60 S9        30.11S

$$

INZ030>032-037>040-046>048-054>057-064-065-011500-
CENTRAL INDIANA

CITY           SKY/WX    TMP DP  RH WIND       PRES   REMARKS
ANDERSON       SUNNY     45  36  70 S12G17    30.12R
COLUMBUS       SUNNY     46  36  66 S12       30.14R
GREENWOOD *+   SUNNY     48  36  61 S5        30.13R
INDIANAPOLIS   MOSUNNY   48  37  65 S5        30.10R
-EAGLE CREEK   SUNNY     48  36  63 S10       30.11R
KOKOMO *+        N/A     48  37  66 SW10      30.11R
MT COMFORT *+  SUNNY     46  32  57 S15       30.12S
SHELBYVILLE    SUNNY     47  38  71 S17G23    30.13R

$$

INZ033-034-041-042-049-050-058-059-011500-
EAST CENTRAL INDIANA

CITY           SKY/WX    TMP DP  RH WIND       PRES   REMARKS
MUNCIE         SUNNY     48  36  63 SW10      30.11R

$$

INZ060-061-067>069-081>083-085>088-011500-
SOUTHWEST INDIANA

CITY           SKY/WX    TMP DP  RH WIND       PRES   REMARKS
EVANSVILLE     SUNNY     54  40  59 E6        30.11S
HUNTINGBURG *+ SUNNY     54  37  54 SE8       30.12S

$$

INZ062-063-066-070>080-084-089>092-011500-
SOUTH CENTRAL AND SOUTHEAST INDIANA

CITY           SKY/WX    TMP DP  RH WIND       PRES   REMARKS
BLOOMINGTON    SUNNY     50  38  63 SE8       30.12R
MADISON *+     SUNNY     48  34  57 SE5       30.16S
SEYMOUR +      SUNNY     50  39  66 S3        30.14S

$$



USA.gov is the U.S. government's official web portal to all federal, state and local government web resources and services.